| time (UTC) | temp F | wind direction | speed MPH | gust MPH | rain 1hr in | rain 24hr in | rain mn in | humidity % | barometer mb |
| 20260905172550 | 59 | 332 | 0.0 | 2.0 | 0.00 | 0.02 | 0.01 | 88 | 1005.4 |
| 20260905172055 | 58 | 332 | 0.0 | 2.0 | 0.00 | 0.02 | 0.01 | 89 | 1005.4 |
| 20260905171533 | 58 | 332 | 0.0 | 4.0 | 0.00 | 0.02 | 0.01 | 89 | 1005.4 |
| 20260905171040 | 58 | 332 | 2.0 | 5.0 | 0.00 | 0.02 | 0.01 | 89 | 1005.4 |
| 20260905170547 | 58 | 65 | 0.0 | 5.0 | 0.00 | 0.02 | 0.01 | 89 | 1005.4 |
| 20260905170022 | 58 | 51 | 2.0 | 4.0 | 0.00 | 0.02 | 0.01 | 90 | 1005.4 |
| 20260905165526 | 57 | 37 | 1.0 | 4.0 | 0.00 | 0.02 | 0.01 | 90 | 1005.5 |
| 20260905165033 | 57 | 30 | 0.0 | 3.0 | 0.00 | 0.02 | 0.01 | 90 | 1005.4 |
| 20260905164504 | 57 | 18 | 1.0 | 3.0 | 0.00 | 0.02 | 0.01 | 90 | 1005.5 |
| 20260905164013 | 57 | 15 | 2.0 | 4.0 | 0.00 | 0.02 | 0.01 | 90 | 1005.4 |
| 20260905163523 | 57 | 67 | 2.0 | 4.0 | 0.00 | 0.02 | 0.01 | 90 | 1005.5 |
| 20260905163059 | 57 | 13 | 1.0 | 3.0 | 0.00 | 0.02 | 0.01 | 90 | 1005.5 |
| 20260905162519 | 57 | 9 | 1.0 | 3.0 | 0.00 | 0.02 | 0.01 | 90 | 1005.5 |
| 20260905162012 | 57 | 5 | 1.0 | 3.0 | 0.00 | 0.02 | 0.01 | 90 | 1005.4 |
| 20260905161547 | 57 | 41 | 0.0 | 4.0 | 0.00 | 0.02 | 0.01 | 90 | 1005.4 |
| 20260905161058 | 57 | 41 | 0.0 | 4.0 | 0.00 | 0.02 | 0.01 | 91 | 1005.4 |
| 20260905160506 | 57 | 39 | 3.0 | 4.0 | 0.00 | 0.02 | 0.01 | 91 | 1005.2 |
| 20260905160024 | 56 | 14 | 2.0 | 4.0 | 0.00 | 0.03 | 0.01 | 91 | 1005.3 |
| 20260905155529 | 56 | 14 | 1.0 | 4.0 | 0.00 | 0.03 | 0.01 | 91 | 1005.4 |
| 20260905155036 | 56 | 24 | 2.0 | 4.0 | 0.00 | 0.03 | 0.01 | 91 | 1005.4 |
| 20260905154544 | 56 | 63 | 0.0 | 3.0 | 0.00 | 0.03 | 0.01 | 91 | 1005.4 |
| 20260905154052 | 56 | 63 | 1.0 | 3.0 | 0.00 | 0.03 | 0.01 | 91 | 1005.4 |
| 20260905153556 | 55 | 86 | 0.0 | 3.0 | 0.00 | 0.03 | 0.01 | 91 | 1005.3 |
| 20260905153028 | 55 | 115 | 0.0 | 0.0 | 0.00 | 0.03 | 0.01 | 91 | 1005.3 |
| 20260905152534 | 55 | 115 | 0.0 | 0.0 | 0.00 | 0.03 | 0.01 | 91 | 1005.4 |
| 20260905152043 | 55 | 115 | 0.0 | 0.0 | 0.00 | 0.03 | 0.01 | 91 | 1005.4 |
| 20260905151607 | 55 | 115 | 0.0 | 0.0 | 0.00 | 0.03 | 0.01 | 91 | 1005.3 |
| 20260905151018 | 55 | 115 | 0.0 | 0.0 | 0.00 | 0.03 | 0.01 | 91 | 1005.4 |
| 20260905150524 | 54 | 115 | 0.0 | 0.0 | 0.00 | 0.03 | 0.01 | 91 | 1005.3 |
| 20260905150054 | 54 | 115 | 0.0 | 0.0 | 0.00 | 0.03 | 0.01 | 91 | 1005.4 |
| 20260905145553 | 54 | 115 | 0.0 | 0.0 | 0.00 | 0.03 | 0.01 | 91 | 1005.4 |
| 20260905145058 | 54 | 115 | 0.0 | 0.0 | 0.00 | 0.03 | 0.01 | 90 | 1005.4 |
| 20260905144535 | 54 | 115 | 0.0 | 0.0 | 0.00 | 0.03 | 0.01 | 90 | 1005.4 |
| 20260905144032 | 54 | 115 | 0.0 | 0.0 | 0.00 | 0.03 | 0.01 | 90 | 1005.5 |
| 20260905143542 | 54 | 115 | 0.0 | 0.0 | 0.00 | 0.03 | 0.01 | 90 | 1005.5 |
| 20260905143055 | 54 | 115 | 0.0 | 0.0 | 0.00 | 0.03 | 0.01 | 90 | 1005.4 |
| 20260905142558 | 54 | 115 | 0.0 | 0.0 | 0.00 | 0.03 | 0.01 | 90 | 1005.2 |
| 20260905142056 | 53 | 115 | 0.0 | 0.0 | 0.00 | 0.03 | 0.01 | 90 | 1005.3 |
| 20260905141509 | 53 | 115 | 0.0 | 0.0 | 0.00 | 0.03 | 0.01 | 90 | 1005.1 |
| 20260905141016 | 53 | 115 | 0.0 | 0.0 | 0.00 | 0.03 | 0.01 | 90 | 1005.1 |
| 20260905140524 | 53 | 115 | 0.0 | 0.0 | 0.00 | 0.03 | 0.01 | 90 | 1005.1 |
| 20260905140046 | 53 | 115 | 0.0 | 0.0 | 0.00 | 0.03 | 0.01 | 90 | 1005.1 |
| 20260905135544 | 53 | 115 | 0.0 | 0.0 | 0.00 | 0.03 | 0.01 | 90 | 1005.1 |
| 20260905135048 | 53 | 115 | 0.0 | 0.0 | 0.00 | 0.03 | 0.01 | 90 | 1005.0 |
| 20260905134527 | 53 | 115 | 0.0 | 0.0 | 0.00 | 0.03 | 0.01 | 90 | 1005.1 |
| 20260905134026 | 53 | 115 | 0.0 | 0.0 | 0.00 | 0.03 | 0.01 | 90 | 1005.1 |
| 20260905133534 | 53 | 115 | 0.0 | 0.0 | 0.00 | 0.03 | 0.01 | 90 | 1005.0 |
| 20260905133057 | 53 | 115 | 0.0 | 0.0 | 0.00 | 0.03 | 0.01 | 90 | 1005.1 |
| 20260905132502 | 53 | 115 | 0.0 | 0.0 | 0.00 | 0.03 | 0.01 | 90 | 1004.9 |
| 20260905132021 | 53 | 115 | 0.0 | 0.0 | 0.00 | 0.03 | 0.01 | 90 | 1005.0 |
| 20260905131554 | 53 | 115 | 0.0 | 0.0 | 0.00 | 0.03 | 0.01 | 90 | 1005.0 |
| 20260905131054 | 53 | 115 | 0.0 | 0.0 | 0.00 | 0.03 | 0.01 | 90 | 1005.0 |
| 20260905130601 | 53 | 115 | 0.0 | 0.0 | 0.00 | 0.03 | 0.01 | 90 | 1004.9 |
| 20260905130010 | 53 | 115 | 0.0 | 0.0 | 0.00 | 0.04 | 0.01 | 90 | 1004.8 |
| 20260905125512 | 53 | 115 | 0.0 | 0.0 | 0.00 | 0.04 | 0.01 | 90 | 1004.9 |
| 20260905125021 | 53 | 115 | 0.0 | 0.0 | 0.00 | 0.04 | 0.01 | 90 | 1004.8 |
| 20260905124557 | 53 | 115 | 0.0 | 0.0 | 0.00 | 0.04 | 0.01 | 90 | 1004.8 |
| 20260905124054 | 53 | 115 | 0.0 | 0.0 | 0.00 | 0.04 | 0.01 | 90 | 1004.8 |
| 20260905123600 | 53 | 115 | 0.0 | 0.0 | 0.00 | 0.04 | 0.01 | 90 | 1004.8 |
| 20260905123034 | 53 | 115 | 0.0 | 0.0 | 0.00 | 0.04 | 0.01 | 90 | 1004.7 |
| 20260905122540 | 53 | 115 | 0.0 | 0.0 | 0.00 | 0.04 | 0.01 | 90 | 1004.6 |
| 20260905122041 | 53 | 115 | 0.0 | 0.0 | 0.00 | 0.04 | 0.01 | 90 | 1004.7 |
| 20260905121508 | 53 | 115 | 0.0 | 0.0 | 0.00 | 0.04 | 0.01 | 90 | 1004.6 |
| 20260905121026 | 53 | 115 | 0.0 | 0.0 | 0.00 | 0.04 | 0.01 | 90 | 1004.6 |
| 20260905120523 | 53 | 115 | 0.0 | 0.0 | 0.00 | 0.04 | 0.01 | 90 | 1004.5 |
| 20260905120048 | 53 | 115 | 0.0 | 0.0 | 0.00 | 0.09 | 0.01 | 90 | 1004.6 |
| 20260905115558 | 53 | 115 | 0.0 | 0.0 | 0.00 | 0.09 | 0.01 | 90 | 1004.6 |
| 20260905115104 | 53 | 115 | 0.0 | 0.0 | 0.00 | 0.09 | 0.01 | 90 | 1004.7 |
| 20260905114542 | 53 | 115 | 0.0 | 0.0 | 0.00 | 0.09 | 0.01 | 90 | 1004.6 |
| 20260905114042 | 53 | 115 | 0.0 | 0.0 | 0.00 | 0.09 | 0.01 | 90 | 1004.6 |
| 20260905113552 | 53 | 115 | 0.0 | 0.0 | 0.00 | 0.09 | 0.01 | 90 | 1004.6 |
| 20260905113020 | 53 | 115 | 0.0 | 0.0 | 0.00 | 0.09 | 0.01 | 90 | 1004.6 |
| 20260905112529 | 53 | 115 | 0.0 | 0.0 | 0.00 | 0.09 | 0.01 | 90 | 1004.6 |
| 20260905112034 | 53 | 115 | 0.0 | 0.0 | 0.00 | 0.09 | 0.01 | 90 | 1004.5 |
| 20260905111554 | 53 | 115 | 0.0 | 0.0 | 0.00 | 0.09 | 0.01 | 90 | 1004.5 |
| 20260905111056 | 53 | 115 | 0.0 | 0.0 | 0.00 | 0.09 | 0.01 | 90 | 1004.4 |
| 20260905110515 | 53 | 115 | 0.0 | 0.0 | 0.00 | 0.09 | 0.01 | 90 | 1004.5 |
| 20260905110048 | 53 | 115 | 0.0 | 0.0 | 0.00 | 0.11 | 0.01 | 90 | 1004.4 |
| 20260905105548 | 53 | 115 | 0.0 | 0.0 | 0.00 | 0.11 | 0.01 | 90 | 1004.5 |
| 20260905105056 | 53 | 115 | 0.0 | 0.0 | 0.00 | 0.11 | 0.01 | 90 | 1004.4 |
| 20260905104522 | 53 | 115 | 0.0 | 0.0 | 0.00 | 0.11 | 0.01 | 90 | 1004.5 |
| 20260905104019 | 53 | 115 | 0.0 | 0.0 | 0.00 | 0.11 | 0.01 | 90 | 1004.6 |
| 20260905103530 | 53 | 115 | 0.0 | 0.0 | 0.00 | 0.11 | 0.01 | 90 | 1004.6 |
| 20260905103059 | 53 | 115 | 0.0 | 0.0 | 0.00 | 0.11 | 0.01 | 90 | 1004.5 |
| 20260905102559 | 53 | 115 | 0.0 | 0.0 | 0.00 | 0.11 | 0.01 | 90 | 1004.6 |
| 20260905102002 | 53 | 115 | 0.0 | 0.0 | 0.00 | 0.11 | 0.01 | 90 | 1004.6 |
| 20260905101540 | 54 | 115 | 0.0 | 0.0 | 0.00 | 0.11 | 0.01 | 90 | 1004.7 |
| 20260905101045 | 53 | 115 | 0.0 | 0.0 | 0.00 | 0.11 | 0.01 | 90 | 1004.7 |
| 20260905100546 | 54 | 115 | 0.0 | 0.0 | 0.00 | 0.11 | 0.01 | 90 | 1004.7 |
| 20260905100015 | 54 | 115 | 0.0 | 0.0 | 0.00 | 0.11 | 0.01 | 90 | 1004.7 |
| 20260905095528 | 54 | 115 | 0.0 | 0.0 | 0.01 | 0.11 | 0.01 | 90 | 1004.7 |
| 20260905095032 | 54 | 115 | 0.0 | 0.0 | 0.01 | 0.11 | 0.01 | 90 | 1004.6 |
| 20260905094602 | 54 | 115 | 0.0 | 0.0 | 0.01 | 0.11 | 0.01 | 90 | 1004.6 |
| 20260905094006 | 54 | 115 | 0.0 | 0.0 | 0.01 | 0.11 | 0.01 | 90 | 1004.6 |
| 20260905093511 | 54 | 115 | 0.0 | 0.0 | 0.01 | 0.11 | 0.01 | 90 | 1004.6 |
| 20260905093028 | 54 | 115 | 0.0 | 0.0 | 0.01 | 0.11 | 0.01 | 90 | 1004.6 |
| 20260905092534 | 53 | 115 | 0.0 | 0.0 | 0.01 | 0.11 | 0.01 | 90 | 1004.5 |
| 20260905092044 | 53 | 115 | 0.0 | 0.0 | 0.01 | 0.11 | 0.01 | 90 | 1004.5 |
| 20260905091508 | 53 | 115 | 0.0 | 0.0 | 0.01 | 0.11 | 0.01 | 90 | 1004.5 |
| 20260905091024 | 53 | 115 | 0.0 | 0.0 | 0.01 | 0.11 | 0.01 | 90 | 1004.4 |
| 20260905090531 | 53 | 115 | 0.0 | 0.0 | 0.01 | 0.11 | 0.01 | 90 | 1004.4 |
| 20260905090131 | 53 | 115 | 0.0 | 0.0 | 0.01 | 0.11 | 0.01 | 90 | 1004.4 |
| 20260905085504 | 53 | 115 | 0.0 | 0.0 | 0.00 | 0.10 | 0.00 | 90 | 1004.3 |
| 20260905085019 | 53 | 115 | 0.0 | 0.0 | 0.00 | 0.10 | 0.00 | 90 | 1004.4 |
| 20260905084538 | 53 | 115 | 0.0 | 0.0 | 0.00 | 0.10 | 0.00 | 90 | 1004.4 |
| 20260905084041 | 53 | 115 | 0.0 | 0.0 | 0.00 | 0.10 | 0.00 | 89 | 1004.3 |
| 20260905083549 | 53 | 115 | 0.0 | 0.0 | 0.00 | 0.10 | 0.00 | 89 | 1004.2 |
| 20260905083028 | 53 | 115 | 0.0 | 0.0 | 0.00 | 0.10 | 0.00 | 89 | 1004.2 |
| 20260905082528 | 53 | 115 | 0.0 | 0.0 | 0.00 | 0.10 | 0.00 | 89 | 1004.2 |
| 20260905082034 | 53 | 115 | 0.0 | 0.0 | 0.00 | 0.10 | 0.00 | 89 | 1004.1 |
| 20260905081600 | 53 | 115 | 0.0 | 0.0 | 0.00 | 0.10 | 0.00 | 89 | 1004.1 |
| 20260905081112 | 53 | 115 | 0.0 | 0.0 | 0.00 | 0.10 | 0.00 | 89 | 1004.1 |
| 20260905080514 | 52 | 115 | 0.0 | 0.0 | 0.00 | 0.10 | 0.00 | 89 | 1004.0 |
| 20260905080026 | 52 | 115 | 0.0 | 0.0 | 0.00 | 0.10 | 0.00 | 89 | 1004.1 |
| 20260905075536 | 52 | 115 | 0.0 | 0.0 | 0.00 | 0.10 | 0.00 | 89 | 1004.1 |
| 20260905075038 | 52 | 115 | 0.0 | 0.0 | 0.00 | 0.10 | 0.00 | 89 | 1004.1 |
| 20260905074509 | 52 | 115 | 0.0 | 0.0 | 0.00 | 0.10 | 0.00 | 89 | 1004.1 |
| 20260905074013 | 52 | 115 | 0.0 | 0.0 | 0.00 | 0.10 | 0.00 | 89 | 1004.0 |
| 20260905073528 | 52 | 115 | 0.0 | 0.0 | 0.00 | 0.10 | 0.00 | 89 | 1004.0 |
| 20260905073039 | 52 | 115 | 0.0 | 0.0 | 0.00 | 0.10 | 0.00 | 89 | 1004.0 |
| 20260905072545 | 52 | 115 | 0.0 | 0.0 | 0.00 | 0.10 | 0.00 | 89 | 1003.9 |
| 20260905072051 | 52 | 115 | 0.0 | 0.0 | 0.00 | 0.10 | 0.00 | 89 | 1004.0 |
| 20260905071520 | 52 | 115 | 0.0 | 0.0 | 0.00 | 0.10 | 0.00 | 89 | 1004.0 |
| 20260905071027 | 52 | 115 | 0.0 | 0.0 | 0.00 | 0.10 | 0.00 | 89 | 1004.0 |
| 20260905070531 | 52 | 115 | 0.0 | 0.0 | 0.00 | 0.10 | 0.00 | 89 | 1004.1 |
| 20260905070047 | 52 | 115 | 0.0 | 0.0 | 0.00 | 0.10 | 0.10 | 89 | 1004.0 |
| 20260905065544 | 52 | 115 | 0.0 | 0.0 | 0.00 | 0.10 | 0.10 | 88 | 1003.9 |
| 20260905065046 | 52 | 115 | 0.0 | 0.0 | 0.00 | 0.10 | 0.10 | 88 | 1003.8 |
| 20260905064558 | 52 | 115 | 0.0 | 0.0 | 0.00 | 0.10 | 0.10 | 88 | 1003.8 |
| 20260905064101 | 52 | 115 | 0.0 | 0.0 | 0.00 | 0.10 | 0.10 | 88 | 1003.8 |
| 20260905063506 | 52 | 115 | 0.0 | 1.0 | 0.00 | 0.10 | 0.10 | 88 | 1003.6 |
| 20260905063040 | 52 | 115 | 0.0 | 2.0 | 0.00 | 0.10 | 0.10 | 88 | 1003.7 |
| 20260905062545 | 52 | 115 | 1.0 | 3.0 | 0.00 | 0.10 | 0.10 | 88 | 1003.7 |
| 20260905062050 | 52 | 115 | 1.0 | 3.0 | 0.00 | 0.10 | 0.10 | 88 | 1003.5 |
| 20260905061537 | 52 | 115 | 1.0 | 3.0 | 0.00 | 0.10 | 0.10 | 88 | 1003.5 |
| 20260905061026 | 52 | 115 | 1.0 | 3.0 | 0.00 | 0.10 | 0.10 | 88 | 1003.5 |
| 20260905060537 | 53 | 115 | 0.0 | 0.0 | 0.00 | 0.10 | 0.10 | 88 | 1003.5 |
| 20260905060008 | 53 | 115 | 0.0 | 0.0 | 0.00 | 0.10 | 0.10 | 88 | 1003.6 |
| 20260905055524 | 53 | 115 | 0.0 | 0.0 | 0.00 | 0.10 | 0.10 | 88 | 1003.6 |
| 20260905055021 | 53 | 115 | 0.0 | 0.0 | 0.00 | 0.10 | 0.10 | 88 | 1003.6 |
| 20260905054548 | 53 | 115 | 0.0 | 0.0 | 0.00 | 0.10 | 0.10 | 88 | 1003.5 |
| 20260905054057 | 53 | 115 | 0.0 | 0.0 | 0.00 | 0.10 | 0.10 | 88 | 1003.6 |
| 20260905053558 | 53 | 115 | 0.0 | 0.0 | 0.00 | 0.10 | 0.10 | 88 | 1003.6 |
| 20260905053014 | 53 | 115 | 0.0 | 0.0 | 0.00 | 0.10 | 0.10 | 88 | 1003.6 |
| 20260905052526 | 53 | 115 | 0.0 | 0.0 | 0.00 | 0.10 | 0.10 | 88 | 1003.6 |
| 20260905052024 | 53 | 115 | 0.0 | 0.0 | 0.00 | 0.10 | 0.10 | 88 | 1003.7 |
| 20260905051556 | 53 | 115 | 0.0 | 0.0 | 0.00 | 0.10 | 0.10 | 88 | 1003.6 |
| 20260905051101 | 53 | 115 | 0.0 | 0.0 | 0.00 | 0.10 | 0.10 | 88 | 1003.6 |
| 20260905050508 | 54 | 115 | 0.0 | 0.0 | 0.00 | 0.10 | 0.10 | 88 | 1003.6 |
| 20260905050036 | 54 | 115 | 0.0 | 0.0 | 0.00 | 0.10 | 0.10 | 88 | 1003.6 |
| 20260905045542 | 54 | 115 | 0.0 | 0.0 | 0.00 | 0.10 | 0.10 | 88 | 1003.7 |
| 20260905045048 | 54 | 115 | 0.0 | 0.0 | 0.00 | 0.10 | 0.10 | 88 | 1003.6 |
| 20260905044509 | 54 | 115 | 0.0 | 0.0 | 0.00 | 0.10 | 0.10 | 88 | 1003.5 |
| 20260905044024 | 54 | 115 | 0.0 | 0.0 | 0.00 | 0.10 | 0.10 | 88 | 1003.6 |
| 20260905043524 | 54 | 115 | 0.0 | 0.0 | 0.00 | 0.10 | 0.10 | 87 | 1003.5 |
| 20260905043102 | 54 | 115 | 0.0 | 0.0 | 0.00 | 0.10 | 0.10 | 87 | 1003.4 |
| 20260905042552 | 54 | 115 | 0.0 | 0.0 | 0.00 | 0.10 | 0.10 | 87 | 1003.4 |
| 20260905042042 | 54 | 115 | 0.0 | 0.0 | 0.00 | 0.10 | 0.10 | 87 | 1003.4 |
| 20260905041532 | 54 | 115 | 0.0 | 0.0 | 0.00 | 0.10 | 0.10 | 87 | 1003.5 |
| 20260905041028 | 55 | 115 | 0.0 | 0.0 | 0.00 | 0.10 | 0.10 | 87 | 1003.4 |
| 20260905040536 | 55 | 115 | 0.0 | 0.0 | 0.00 | 0.10 | 0.10 | 87 | 1003.4 |
| 20260905040002 | 55 | 115 | 0.0 | 0.0 | 0.00 | 0.10 | 0.10 | 87 | 1003.3 |
| 20260905035516 | 55 | 115 | 0.0 | 0.0 | 0.00 | 0.10 | 0.10 | 87 | 1003.1 |
| 20260905035024 | 55 | 115 | 0.0 | 0.0 | 0.00 | 0.10 | 0.10 | 87 | 1003.1 |
| 20260905034607 | 55 | 101 | 0.0 | 0.0 | 0.00 | 0.10 | 0.10 | 87 | 1002.9 |
| 20260905034101 | 55 | 101 | 0.0 | 0.0 | 0.00 | 0.10 | 0.10 | 87 | 1003.0 |
| 20260905033508 | 55 | 101 | 0.0 | 0.0 | 0.00 | 0.10 | 0.10 | 87 | 1002.9 |
| 20260905033031 | 56 | 101 | 0.0 | 0.0 | 0.00 | 0.10 | 0.10 | 87 | 1003.0 |
| 20260905032541 | 56 | 101 | 0.0 | 0.0 | 0.00 | 0.10 | 0.10 | 87 | 1002.9 |
| 20260905032045 | 56 | 101 | 0.0 | 1.0 | 0.00 | 0.10 | 0.10 | 87 | 1002.7 |
| 20260905031514 | 56 | 101 | 0.0 | 1.0 | 0.00 | 0.10 | 0.10 | 87 | 1002.6 |
| 20260905031033 | 56 | 101 | 0.0 | 1.0 | 0.00 | 0.10 | 0.10 | 86 | 1002.7 |
| 20260905030534 | 56 | 101 | 0.0 | 0.0 | 0.00 | 0.10 | 0.10 | 86 | 1002.7 |
| 20260905030010 | 56 | 101 | 0.0 | 0.0 | 0.00 | 0.10 | 0.10 | 86 | 1002.7 |
| 20260905025511 | 56 | 101 | 0.0 | 0.0 | 0.00 | 0.10 | 0.10 | 86 | 1002.6 |
| 20260905025019 | 56 | 101 | 0.0 | 0.0 | 0.00 | 0.10 | 0.10 | 86 | 1002.5 |
| 20260905024600 | 56 | 101 | 0.0 | 0.0 | 0.00 | 0.10 | 0.10 | 86 | 1002.5 |
| 20260905024003 | 56 | 101 | 0.0 | 0.0 | 0.00 | 0.10 | 0.10 | 85 | 1002.5 |
| 20260905023510 | 57 | 101 | 0.0 | 2.0 | 0.00 | 0.10 | 0.10 | 85 | 1002.6 |
| 20260905023050 | 57 | 101 | 0.0 | 2.0 | 0.00 | 0.10 | 0.10 | 84 | 1002.5 |
| 20260905022555 | 57 | 101 | 1.0 | 2.0 | 0.00 | 0.10 | 0.10 | 84 | 1002.4 |
| 20260905022005 | 57 | 101 | 0.0 | 1.0 | 0.00 | 0.10 | 0.10 | 84 | 1002.5 |
| 20260905021540 | 57 | 101 | 0.0 | 1.0 | 0.00 | 0.10 | 0.10 | 83 | 1002.4 |
| 20260905021045 | 57 | 101 | 0.0 | 1.0 | 0.00 | 0.10 | 0.10 | 83 | 1002.4 |
| 20260905020553 | 58 | 101 | 0.0 | 2.0 | 0.00 | 0.10 | 0.10 | 83 | 1002.3 |
| 20260905020033 | 58 | 101 | 1.0 | 2.0 | 0.00 | 0.10 | 0.10 | 83 | 1002.2 |
| 20260905015538 | 58 | 101 | 0.0 | 1.0 | 0.00 | 0.10 | 0.10 | 83 | 1002.2 |
| 20260905015042 | 58 | 101 | 0.0 | 0.0 | 0.00 | 0.10 | 0.10 | 83 | 1002.1 |
| 20260905014507 | 58 | 101 | 0.0 | 0.0 | 0.00 | 0.10 | 0.10 | 83 | 1002.1 |
| 20260905014027 | 59 | 101 | 0.0 | 0.0 | 0.00 | 0.10 | 0.10 | 83 | 1002.1 |
| 20260905013536 | 59 | 101 | 0.0 | 2.0 | 0.00 | 0.10 | 0.10 | 83 | 1002.1 |
| 20260905013120 | 59 | 101 | 0.0 | 2.0 | 0.00 | 0.10 | 0.10 | 82 | 1002.0 |
| 20260905012517 | 59 | 101 | 0.0 | 0.0 | 0.00 | 0.10 | 0.10 | 82 | 1002.1 |
| 20260905012024 | 59 | 101 | 0.0 | 0.0 | 0.00 | 0.10 | 0.10 | 82 | 1002.0 |
| 20260905011557 | 59 | 101 | 0.0 | 2.0 | 0.00 | 0.10 | 0.10 | 82 | 1001.9 |
| 20260905011001 | 60 | 101 | 0.0 | 2.0 | 0.00 | 0.10 | 0.10 | 82 | 1002.0 |
| 20260905010510 | 60 | 101 | 0.0 | 1.0 | 0.00 | 0.10 | 0.10 | 81 | 1002.0 |
| 20260905010032 | 60 | 101 | 0.0 | 1.0 | 0.00 | 0.10 | 0.10 | 80 | 1002.0 |
| 20260905005537 | 60 | 101 | 0.0 | 1.0 | 0.00 | 0.10 | 0.10 | 80 | 1002.0 |
| 20260905005044 | 60 | 101 | 0.0 | 2.0 | 0.00 | 0.10 | 0.10 | 79 | 1002.0 |
| 20260905004522 | 60 | 101 | 0.0 | 3.0 | 0.00 | 0.10 | 0.10 | 78 | 1002.0 |
| 20260905004029 | 60 | 101 | 1.0 | 3.0 | 0.00 | 0.10 | 0.10 | 79 | 1002.0 |
| 20260905003539 | 61 | 355 | 0.0 | 3.0 | 0.00 | 0.10 | 0.10 | 79 | 1002.0 |
| 20260905003018 | 61 | 355 | 1.0 | 3.0 | 0.01 | 0.10 | 0.10 | 79 | 1001.9 |
| 20260905002526 | 60 | 42 | 0.0 | 3.0 | 0.01 | 0.10 | 0.10 | 80 | 1001.9 |
| 20260905002038 | 61 | 42 | 0.0 | 3.0 | 0.01 | 0.10 | 0.10 | 80 | 1001.9 |
| 20260905001502 | 61 | 67 | 1.0 | 3.0 | 0.01 | 0.10 | 0.10 | 80 | 1001.9 |
| 20260905001007 | 61 | 120 | 0.0 | 3.0 | 0.01 | 0.10 | 0.10 | 81 | 1002.1 |
| 20260905000522 | 61 | 120 | 0.0 | 3.0 | 0.01 | 0.10 | 0.10 | 81 | 1002.1 |
| 20260905000055 | 61 | 184 | 0.0 | 2.0 | 0.01 | 0.10 | 0.10 | 81 | 1002.2 |
| 20260904235600 | 62 | 184 | 0.0 | 3.0 | 0.01 | 0.10 | 0.10 | 81 | 1002.0 |
| 20260904235001 | 62 | 184 | 0.0 | 3.0 | 0.01 | 0.10 | 0.10 | 81 | 1002.1 |
| 20260904234545 | 62 | 212 | 0.0 | 3.0 | 0.01 | 0.10 | 0.10 | 81 | 1002.0 |
| 20260904234051 | 62 | 213 | 1.0 | 3.0 | 0.01 | 0.10 | 0.10 | 80 | 1001.9 |
| 20260904233559 | 62 | 202 | 1.0 | 3.0 | 0.01 | 0.10 | 0.10 | 81 | 1001.9 |
| 20260904233039 | 62 | 204 | 1.0 | 3.0 | 0.00 | 0.09 | 0.09 | 80 | 1001.8 |
| 20260904232548 | 63 | 172 | 0.0 | 3.0 | 0.00 | 0.09 | 0.09 | 79 | 1001.7 |
| 20260904232053 | 63 | 118 | 0.0 | 3.0 | 0.00 | 0.09 | 0.09 | 77 | 1001.7 |
| 20260904231506 | 63 | 138 | 0.0 | 4.0 | 0.00 | 0.09 | 0.09 | 77 | 1001.6 |
| 20260904231017 | 63 | 138 | 1.0 | 4.0 | 0.00 | 0.09 | 0.09 | 76 | 1001.7 |
| 20260904230529 | 63 | 247 | 1.0 | 5.0 | 0.00 | 0.09 | 0.09 | 75 | 1001.6 |
| 20260904230044 | 64 | 187 | 0.0 | 5.0 | 0.00 | 0.11 | 0.09 | 73 | 1001.6 |
| 20260904225551 | 64 | 177 | 2.0 | 5.0 | 0.00 | 0.11 | 0.09 | 72 | 1001.6 |
| 20260904225056 | 64 | 196 | 1.0 | 4.0 | 0.00 | 0.11 | 0.09 | 71 | 1001.4 |
| 20260904224533 | 64 | 242 | 1.0 | 7.0 | 0.00 | 0.11 | 0.09 | 70 | 1001.4 |
| 20260904224043 | 64 | 189 | 3.0 | 7.0 | 0.00 | 0.11 | 0.09 | 69 | 1001.4 |
| 20260904223548 | 64 | 125 | 1.0 | 4.0 | 0.00 | 0.11 | 0.09 | 70 | 1001.4 |
| 20260904223021 | 64 | 319 | 1.0 | 6.0 | 0.00 | 0.11 | 0.09 | 71 | 1001.4 |
| 20260904222530 | 64 | 200 | 1.0 | 6.0 | 0.00 | 0.11 | 0.09 | 68 | 1001.3 |
| 20260904222035 | 64 | 192 | 1.0 | 5.0 | 0.00 | 0.11 | 0.09 | 68 | 1001.4 |
| 20260904221554 | 64 | 167 | 0.0 | 5.0 | 0.00 | 0.11 | 0.09 | 66 | 1001.2 |
| 20260904221059 | 65 | 295 | 1.0 | 7.0 | 0.00 | 0.11 | 0.09 | 68 | 1001.3 |
| 20260904220508 | 65 | 175 | 2.0 | 9.0 | 0.00 | 0.11 | 0.09 | 67 | 1001.3 |
| 20260904220041 | 65 | 224 | 2.0 | 9.0 | 0.00 | 0.11 | 0.09 | 66 | 1001.2 |
| 20260904215547 | 65 | 207 | 3.0 | 10.0 | 0.00 | 0.11 | 0.09 | 68 | 1001.2 |
| 20260904215053 | 66 | 194 | 3.0 | 9.0 | 0.00 | 0.11 | 0.09 | 71 | 1001.3 |
| 20260904214529 | 66 | 154 | 3.0 | 5.0 | 0.00 | 0.11 | 0.09 | 66 | 1001.1 |
| 20260904214037 | 66 | 166 | 1.0 | 5.0 | 0.00 | 0.11 | 0.09 | 66 | 1001.1 |
| 20260904213543 | 65 | 113 | 1.0 | 5.0 | 0.00 | 0.11 | 0.09 | 65 | 1000.9 |
| 20260904213009 | 65 | 316 | 2.0 | 8.0 | 0.00 | 0.11 | 0.09 | 71 | 1000.9 |
| 20260904212516 | 64 | 102 | 2.0 | 8.0 | 0.00 | 0.11 | 0.09 | 68 | 1000.9 |
| 20260904212021 | 64 | 289 | 1.0 | 4.0 | 0.00 | 0.11 | 0.09 | 68 | 1001.0 |
| 20260904211600 | 63 | 240 | 1.0 | 5.0 | 0.00 | 0.11 | 0.09 | 75 | 1001.0 |
| 20260904211003 | 63 | 253 | 2.0 | 5.0 | 0.00 | 0.11 | 0.09 | 75 | 1001.0 |
| 20260904210509 | 63 | 245 | 1.0 | 4.0 | 0.00 | 0.11 | 0.09 | 75 | 1000.9 |
| 20260904210047 | 64 | 188 | 1.0 | 6.0 | 0.00 | 0.17 | 0.09 | 71 | 1000.9 |
| 20260904205557 | 64 | 106 | 1.0 | 6.0 | 0.00 | 0.17 | 0.09 | 69 | 1000.8 |
| 20260904205103 | 64 | 259 | 2.0 | 6.0 | 0.00 | 0.17 | 0.09 | 70 | 1000.8 |
| 20260904204539 | 64 | 55 | 0.0 | 4.0 | 0.00 | 0.17 | 0.09 | 72 | 1000.8 |
| 20260904204051 | 64 | 90 | 1.0 | 4.0 | 0.00 | 0.17 | 0.09 | 71 | 1000.8 |
| 20260904203557 | 64 | 42 | 1.0 | 4.0 | 0.00 | 0.17 | 0.09 | 71 | 1000.7 |
| 20260904203035 | 64 | 58 | 2.0 | 3.0 | 0.00 | 0.17 | 0.09 | 71 | 1000.7 |
| 20260904202541 | 64 | 19 | 1.0 | 8.0 | 0.00 | 0.17 | 0.09 | 72 | 1000.7 |
| 20260904202049 | 64 | 106 | 1.0 | 8.0 | 0.00 | 0.17 | 0.09 | 71 | 1000.8 |
| 20260904201524 | 65 | 38 | 3.0 | 7.0 | 0.00 | 0.17 | 0.09 | 74 | 1000.6 |
| 20260904201030 | 64 | 121 | 2.0 | 5.0 | 0.00 | 0.17 | 0.09 | 72 | 1000.8 |
| 20260904200538 | 63 | 304 | 0.0 | 3.0 | 0.00 | 0.17 | 0.09 | 75 | 1000.7 |
| 20260904200002 | 63 | 269 | 1.0 | 5.0 | 0.00 | 0.17 | 0.09 | 78 | 1000.7 |
| 20260904195523 | 63 | 52 | 1.0 | 5.0 | 0.00 | 0.17 | 0.09 | 77 | 1000.7 |
| 20260904195013 | 63 | 11 | 1.0 | 4.0 | 0.00 | 0.17 | 0.09 | 81 | 1000.8 |
| 20260904194603 | 63 | 360 | 1.0 | 3.0 | 0.00 | 0.17 | 0.09 | 76 | 1000.8 |
| 20260904194055 | 63 | 30 | 1.0 | 3.0 | 0.00 | 0.17 | 0.09 | 75 | 1001.0 |
| 20260904193603 | 63 | 355 | 1.0 | 4.0 | 0.00 | 0.17 | 0.09 | 76 | 1000.9 |
| 20260904193037 | 63 | 350 | 1.0 | 4.0 | 0.00 | 0.17 | 0.09 | 77 | 1000.9 |
| 20260904192546 | 63 | 238 | 1.0 | 3.0 | 0.00 | 0.17 | 0.09 | 81 | 1000.9 |
| 20260904192053 | 61 | 360 | 1.0 | 3.0 | 0.00 | 0.17 | 0.09 | 78 | 1001.0 |
| 20260904191519 | 61 | 39 | 0.0 | 3.0 | 0.00 | 0.17 | 0.09 | 80 | 1000.9 |
| 20260904191035 | 61 | 39 | 1.0 | 2.0 | 0.00 | 0.17 | 0.09 | 80 | 1001.0 |
| 20260904190543 | 61 | 40 | 0.0 | 3.0 | 0.00 | 0.17 | 0.09 | 80 | 1001.2 |
| 20260904190019 | 61 | 40 | 0.0 | 3.0 | 0.00 | 0.17 | 0.09 | 83 | 1001.1 |
| 20260904185525 | 61 | 41 | 1.0 | 5.0 | 0.00 | 0.17 | 0.09 | 83 | 1001.2 |
| 20260904185036 | 61 | 22 | 2.0 | 5.0 | 0.00 | 0.17 | 0.09 | 85 | 1001.1 |
| 20260904184615 | 61 | 42 | 0.0 | 3.0 | 0.00 | 0.17 | 0.09 | 86 | 1001.2 |
| 20260904184005 | 60 | 41 | 0.0 | 0.0 | 0.00 | 0.17 | 0.09 | 85 | 1001.1 |
| 20260904183514 | 59 | 41 | 0.0 | 0.0 | 0.00 | 0.17 | 0.09 | 84 | 1001.0 |
| 20260904183048 | 59 | 41 | 0.0 | 0.0 | 0.00 | 0.17 | 0.09 | 85 | 1000.9 |
| 20260904182559 | 59 | 42 | 0.0 | 0.0 | 0.00 | 0.17 | 0.09 | 84 | 1001.0 |
| 20260904182003 | 59 | 45 | 0.0 | 0.0 | 0.00 | 0.17 | 0.09 | 84 | 1001.0 |
| 20260904181540 | 59 | 45 | 0.0 | 0.0 | 0.00 | 0.17 | 0.09 | 86 | 1000.9 |
| 20260904181045 | 59 | 360 | 0.0 | 1.0 | 0.00 | 0.17 | 0.09 | 85 | 1000.8 |
| 20260904180556 | 59 | 360 | 0.0 | 1.0 | 0.00 | 0.17 | 0.09 | 86 | 1000.9 |
| 20260904180041 | 59 | 360 | 0.0 | 3.0 | 0.00 | 0.17 | 0.09 | 87 | 1000.8 |
| 20260904175530 | 59 | 360 | 1.0 | 3.0 | 0.00 | 0.17 | 0.09 | 87 | 1000.8 |
| 20260904175035 | 58 | 355 | 1.0 | 3.0 | 0.00 | 0.17 | 0.09 | 87 | 1000.7 |
| 20260904174505 | 58 | 355 | 0.0 | 0.0 | 0.00 | 0.17 | 0.09 | 87 | 1000.7 |
| 20260904174020 | 58 | 355 | 0.0 | 0.0 | 0.00 | 0.17 | 0.09 | 88 | 1000.7 |
| 20260904173526 | 58 | 355 | 0.0 | 0.0 | 0.00 | 0.17 | 0.09 | 87 | 1000.7 |
| 20260904173054 | 57 | 355 | 0.0 | 0.0 | 0.00 | 0.17 | 0.09 | 88 | 1000.7 |